Weather History for Oxford, NC

Change the Weather History Date:

Wednesday, November 6, 2013

  Actual Average (KTDF) Record (KTDF)
Temperature  
Mean Temperature 56 °F -  
Max Temperature 69 °F 62 °F 82 °F (2003)
Min Temperature 42 °F 38 °F 17 °F (1991)
Degree Days  
Heating Degree Days 10    
Growing Degree Days 6 (Base 50)    
Moisture  
Dew Point 47 °F    
Average Humidity 75    
Maximum Humidity 92    
Minimum Humidity 49    
Precipitation  
Precipitation 0.00 in - - ()
Sea Level Pressure  
Sea Level Pressure 30.30 in    
Wind  
Wind Speed 2 mph (East)    
Max Wind Speed 7 mph    
Max Gust Speed -    
Visibility 10 miles    
Events      
Averages and records for this station are not official NWS values.
T = Trace of Precipitation, MM = Missing Value Source: NWS Daily Summary

Daily Weather History Graph

Daily Weather History Graph

Search for Another Location

Airport:

Trip Planner

Search our weather history database for the weather conditions in past years. The results will help you decide how hot, cold, wet, or windy it might be!

Date:

Astronomy

Nov. 06, 2013 Rise Set
Actual Time 6:42 AM EST 5:12 PM EST
Civil Twilight 6:15 AM EST 5:39 PM EST
Nautical Twilight 5:44 AM EST 6:10 PM EST
Astronomical Twilight 5:14 AM EST 6:40 PM EST
Moon 9:53 AM EST (11/6) 8:17 PM EST (11/6)
Length of Visible Light 11h 24m
Length of Day
10h 30m
Waxing Crescent, 13% of the Moon is Illuminated
Nov 6
Waxing Crescent
Nov 10
First Quarter
Nov 17
Full
Nov 25
Last Quarter
Dec 2
New

Hourly Weather History & Observations

Time (EST) Temp. Windchill Dew Point Humidity Pressure Visibility Wind Dir Wind Speed Gust Speed Precip Events Conditions
12:15 AM 49.1 °F - 43.7 °F 82% 30.45 in 10.0 mi North 3.5 mph - N/A   Mostly Cloudy
12:35 AM 48.6 °F - 43.7 °F 83% 30.44 in 10.0 mi Calm Calm - N/A   Overcast
12:55 AM 48.0 °F - 43.3 °F 84% 30.43 in 10.0 mi Calm Calm - N/A   Mostly Cloudy
1:35 AM 46.9 °F - 43.2 °F 87% 30.42 in 10.0 mi NNW 3.5 mph - N/A   Scattered Clouds
1:55 AM 46.4 °F 45.2 °F 42.8 °F 87% 30.42 in 10.0 mi NNW 3.5 mph - N/A   Clear
2:15 AM 46.4 °F 45.2 °F 42.8 °F 87% 30.41 in 10.0 mi North 3.5 mph - N/A   Clear
2:35 AM 46.2 °F - 42.4 °F 87% 30.41 in 10.0 mi Calm Calm - N/A   Clear
2:55 AM 45.7 °F - 41.9 °F 87% 30.41 in 10.0 mi Calm Calm - N/A   Clear
3:15 AM 45.5 °F 44.2 °F 41.9 °F 87% 30.40 in 10.0 mi North 3.5 mph - N/A   Clear
3:35 AM 45.0 °F 43.5 °F 41.4 °F 87% 30.40 in 10.0 mi North 3.5 mph - N/A   Clear
3:55 AM 44.6 °F 43.1 °F 41.2 °F 88% 30.39 in 10.0 mi North 3.5 mph - N/A   Clear
4:15 AM 44.4 °F 42.0 °F 41.2 °F 88% 30.39 in 10.0 mi North 4.6 mph - N/A   Clear
4:35 AM 43.9 °F - 41.0 °F 90% 30.39 in 10.0 mi Calm Calm - N/A   Clear
4:55 AM 43.9 °F - 41.0 °F 90% 30.39 in 10.0 mi Calm Calm - N/A   Clear
5:15 AM 43.7 °F 42.1 °F 41.0 °F 90% 30.38 in 10.0 mi North 3.5 mph - N/A   Clear
5:35 AM 43.7 °F - 41.0 °F 90% 30.38 in 10.0 mi Calm Calm - N/A   Clear
5:55 AM 43.7 °F - 41.0 °F 90% 30.39 in 10.0 mi Calm Calm - N/A   Clear
6:15 AM 43.7 °F - 41.0 °F 90% 30.38 in 10.0 mi Calm Calm - N/A   Clear
6:35 AM 43.3 °F - 41.0 °F 91% 30.38 in 10.0 mi Calm Calm - N/A   Clear
6:55 AM 43.2 °F - 41.0 °F 92% 30.38 in 10.0 mi Calm Calm - N/A   Clear
7:15 AM 42.8 °F - 40.3 °F 91% 30.38 in 10.0 mi Calm Calm - N/A   Clear
7:35 AM 44.1 °F - 41.7 °F 91% 30.39 in 10.0 mi Calm Calm - N/A   Scattered Clouds
7:55 AM 46.6 °F - 43.0 °F 87% 30.39 in 10.0 mi Calm Calm - N/A   Scattered Clouds
8:15 AM 49.1 °F - 43.9 °F 82% 30.39 in 10.0 mi North 3.5 mph - N/A   Scattered Clouds
8:35 AM 49.8 °F - 43.9 °F 80% 30.39 in 10.0 mi North 3.5 mph - N/A   Clear
8:55 AM 50.4 °F - 44.1 °F 79% 30.38 in 10.0 mi North 3.5 mph - N/A   Clear
9:15 AM 53.8 °F - 46.2 °F 76% 30.38 in 10.0 mi NE 3.5 mph - N/A   Clear
9:35 AM 55.4 °F - 46.9 °F 73% 30.37 in 10.0 mi NE 4.6 mph - N/A   Clear
9:55 AM 56.8 °F - 46.9 °F 69% 30.37 in 10.0 mi Calm Calm - N/A   Clear
10:15 AM 57.7 °F - 47.7 °F 69% 30.37 in 10.0 mi Calm Calm - N/A   Clear
10:35 AM 60.3 °F - 48.2 °F 64% 30.37 in 10.0 mi Calm Calm - N/A   Clear
10:55 AM 61.9 °F - 48.2 °F 61% 30.36 in 10.0 mi Calm Calm - N/A   Clear
11:15 AM 64.4 °F - 48.9 °F 57% 30.35 in 5.0 mi ESE 5.8 mph - N/A   Haze
11:35 AM 65.8 °F - 48.0 °F 53% 30.34 in 10.0 mi East 3.5 mph - N/A   Clear
11:55 AM 66.7 °F - 48.4 °F 52% 30.33 in 5.0 mi South 4.6 mph - N/A   Haze
12:15 PM 66.9 °F - 48.2 °F 51% 30.32 in 5.0 mi ESE 3.5 mph - N/A   Haze
12:35 PM 66.9 °F - 48.2 °F 51% 30.31 in 5.0 mi Calm Calm - N/A   Haze
12:55 PM 68.7 °F - 49.1 °F 50% 30.29 in 10.0 mi ENE 3.5 mph - N/A   Overcast
1:15 PM 68.0 °F - 49.1 °F 51% 30.28 in 10.0 mi Calm Calm - N/A   Mostly Cloudy
1:35 PM 68.4 °F - 49.1 °F 50% 30.28 in 5.0 mi Calm Calm - N/A   Haze
1:55 PM 68.9 °F - 49.3 °F 50% 30.27 in 10.0 mi ESE 3.5 mph - N/A   Mostly Cloudy
2:15 PM 69.4 °F - 49.3 °F 49% 30.26 in 4.0 mi Calm Calm - N/A   Haze
2:35 PM 69.1 °F - 49.3 °F 49% 30.26 in 5.0 mi Calm Calm - N/A   Haze
2:55 PM 68.9 °F - 49.5 °F 50% 30.25 in 10.0 mi ESE 5.8 mph - N/A   Overcast
3:15 PM 69.1 °F - 48.9 °F 49% 30.24 in 7.0 mi South 3.5 mph - N/A   Overcast
3:35 PM 68.9 °F - 49.3 °F 50% 30.24 in 10.0 mi SSE 3.5 mph - N/A   Overcast
3:55 PM 69.1 °F - 49.8 °F 50% 30.23 in 10.0 mi ESE 6.9 mph - N/A   Mostly Cloudy
4:15 PM 68.2 °F - 50.0 °F 52% 30.22 in 10.0 mi Calm Calm - N/A   Scattered Clouds
4:35 PM 67.3 °F - 50.2 °F 54% 30.22 in 10.0 mi SE 4.6 mph - N/A   Clear
4:55 PM 66.0 °F - 50.9 °F 58% 30.22 in 10.0 mi SE 3.5 mph - N/A   Clear
5:15 PM 64.6 °F - 50.9 °F 61% 30.21 in 10.0 mi Calm Calm - N/A   Clear
5:35 PM 62.6 °F - 51.3 °F 66% 30.21 in 10.0 mi Calm Calm - N/A   Clear
5:55 PM 61.3 °F - 51.1 °F 69% 30.22 in 10.0 mi Calm Calm - N/A   Clear
6:15 PM 59.4 °F - 51.1 °F 74% 30.22 in 10.0 mi Calm Calm - N/A   Clear
6:35 PM 58.5 °F - 51.6 °F 78% 30.22 in 10.0 mi Calm Calm - N/A   Clear
6:55 PM 58.1 °F - 50.9 °F 77% 30.22 in 10.0 mi Calm Calm - N/A   Clear
7:15 PM 59.4 °F - 51.8 °F 76% 30.21 in 10.0 mi SE 3.5 mph - N/A   Clear
7:35 PM 57.2 °F - 50.7 °F 79% 30.20 in 10.0 mi SE 3.5 mph - N/A   Clear
7:55 PM 55.9 °F - 50.9 °F 83% 30.19 in 10.0 mi Calm Calm - N/A   Clear
8:15 PM 56.1 °F - 52.5 °F 88% 30.19 in 10.0 mi Calm Calm - N/A   Clear
8:35 PM 53.1 °F - 50.2 °F 90% 30.18 in 10.0 mi Calm Calm - N/A   Clear
8:55 PM 56.7 °F - 52.0 °F 84% 30.18 in 10.0 mi Calm Calm - N/A   Clear
9:15 PM 57.9 °F - 51.8 °F 80% 30.18 in 10.0 mi Calm Calm - N/A   Clear
9:35 PM 55.0 °F - 50.7 °F 85% 30.17 in 10.0 mi Calm Calm - N/A   Clear
9:55 PM 56.5 °F - 52.3 °F 86% 30.17 in 10.0 mi SSE 3.5 mph - N/A   Clear
10:15 PM 56.7 °F - 52.5 °F 86% 30.16 in 10.0 mi South 3.5 mph - N/A   Clear
10:35 PM 56.7 °F - 52.7 °F 87% 30.16 in 10.0 mi SSE 4.6 mph - N/A   Clear
10:55 PM 56.1 °F - 52.5 °F 88% 30.15 in 10.0 mi South 4.6 mph - N/A   Scattered Clouds
11:15 PM 56.7 °F - 53.6 °F 89% 30.14 in 10.0 mi South 4.6 mph - N/A   Overcast
11:35 PM 56.7 °F - 53.8 °F 90% 30.13 in 10.0 mi SSE 4.6 mph - N/A   Overcast
11:55 PM 56.7 °F - 54.0 °F 91% 30.12 in 10.0 mi SSE 4.6 mph - N/A   Mostly Cloudy